This demonstration page uses our WeatherBlox Daily Observations layout. Learn more.

Left ArrowRight Arrow

41.55636, -103.73856

Hourly Observations for December 25, 2017

Temp ( °F °C ) Dew Point ( °F °C ) Humidity (%) Winds ( mph kmh ) Pressure ( in mb ) Visibility ( mi km ) Precip ( " mm )
12:53 am 00:53 Cloudy 5 -15 -1 -18.3 76 76 ESE 5 7 30.37 1028 10 16 N/A
1:53 am 01:53 Cloudy 7 -13.9 1 -17.2 76 76 N N/A 30.35 1028 10 16 N/A
2:53 am 02:53 Cloudy 7 -13.9 1 -17.2 76 76 N N/A 30.33 1027 10 16 N/A
3:53 am 03:53 Cloudy 8 -13.3 1 -17.2 73 73 N N/A 30.32 1027 10 16 N/A
4:53 am 04:53 Cloudy 8 -13.3 3 -16.1 80 80 WNW 6 9 30.35 1028 10 16 N/A
5:53 am 05:53 Cloudy 8 -13.3 3 -16.1 80 80 WSW 6 9 30.38 1029 10 16 N/A
6:26 am 06:26 Cloudy with Light Snow 8 -13.3 3 -16.1 80 80 WNW 3 6 30.48 1032 3 4 N/A
6:48 am 06:48 Cloudy with Light Snow 9 -13 3 -16 78 78 NW 5 7 30.48 1032 2 3 N/A
6:53 am 06:53 Cloudy with Light Snow 8 -13.3 5 -15 87 87 NW 6 9 30.38 1029 2 3 0.01 0.25
7:26 am 07:26 Mostly Cloudy with Light Snow 8 -13.3 5 -15 87 87 WNW 5 7 30.48 1032 1 1 0.01 0.25
7:53 am 07:53 Mostly Cloudy with Snow 9 -12.8 6 -14.4 88 88 N N/A 30.39 1029 0 0 0.03 0.76
8:15 am 08:15 Mostly Cloudy with Light Snow 9 -12.8 5 -15 84 84 E 13 20 30.48 1032 1 1 0.01 0.25
8:53 am 08:53 Mostly Cloudy with Light Snow 9 -12.8 5 -15 84 84 ENE 7 11 30.39 1029 1 1 0.03 0.76
9:11 am 09:11 Mostly Cloudy with Light Snow 9 -12.8 5 -15 84 84 E 9 15 30.48 1032 1 1 0.01 0.25
9:48 am 09:48 Mostly Cloudy with Snow 9 -13 3 -16 78 78 E 9 15 30.50 1033 1 1 0.03 0.76
9:53 am 09:53 Mostly Cloudy with Snow 8 -13.3 4 -15.6 83 83 ENE 8 13 30.42 1030 1 1 0.04 1.02
10:43 am 10:43 Mostly Cloudy with Light Snow 8 -13.3 4 -15.6 83 83 E 8 13 30.48 1032 1 1 0.02 0.51
10:53 am 10:53 Mostly Cloudy with Snow 8 -13.3 4 -15.6 83 83 ENE 8 13 30.40 1030 1 1 0.03 0.76
11:00 am 11:00 Mostly Cloudy with Snow 9 -13 3 -16 78 78 ENE 8 13 30.48 1032 1 1 N/A
11:12 am 11:12 Mostly Cloudy with Light Snow 9 -13 3 -16 78 78 E 10 17 30.48 1032 1 1 N/A
11:32 am 11:32 Cloudy with Light Snow 9 -13 3 -16 78 78 E 10 17 30.48 1032 1 2 N/A
11:43 am 11:43 Cloudy with Light Snow 8 -13.3 3 -16.1 80 80 E 9 15 30.48 1032 2 3 0.02 0.51
11:50 am 11:50 Cloudy with Light Snow 9 -13 3 -16 78 78 E 9 15 30.48 1032 2 3 N/A
11:53 am 11:53 Cloudy with Light Snow 8 -13.3 3 -16.1 80 80 E 8 13 30.37 1029 2 3 0.02 0.51
12:12 pm 12:12 Cloudy with Light Snow 7 -14 3 -16 85 85 E 10 17 30.48 1032 3 5 N/A
12:53 pm 12:53 Cloudy with Light Snow 8 -13.3 3 -16.1 80 80 E 9 15 30.34 1027 5 8 0.01 0.25
1:53 pm 13:53 Cloudy 8 -13.3 2 -16.7 76 76 E 12 19 30.34 1027 9 14 N/A
2:53 pm 14:53 Cloudy with Light Snow 8 -13.3 2 -16.7 76 76 E 12 19 30.35 1028 10 16 N/A
3:53 pm 15:53 Cloudy 7 -13.9 1 -17.2 76 76 E 10 17 30.36 1028 10 16 N/A
4:28 pm 16:28 Cloudy with Light Snow 7 -14 1 -17 78 78 E 9 15 30.48 1032 5 8 N/A
4:53 pm 16:53 Cloudy 7 -13.9 2 -16.7 80 80 E 9 15 30.38 1029 10 16 N/A
5:53 pm 17:53 Cloudy with Light Snow 6 -14.4 1 -17.2 79 79 E 10 17 30.40 1030 5 8 N/A
6:45 pm 18:45 Cloudy with Light Snow 6 -14.4 2 -16.7 83 83 E 12 19 30.53 1034 2 3 0.01 0.25
6:53 pm 18:53 Mostly Cloudy with Light Snow 6 -14.4 2 -16.7 83 83 ESE 12 19 30.42 1030 1 1 0.02 0.51
7:01 pm 19:01 Mostly Cloudy with Light Snow 6 -14.4 2 -16.7 83 83 E 9 15 30.56 1035 1 2 0.01 0.25
7:32 pm 19:32 Cloudy with Light Snow 7 -14 1 -17 78 78 E 9 15 30.56 1035 1 2 N/A
7:41 pm 19:41 Cloudy with Light Snow 6 -14.4 2 -16.7 83 83 E 9 15 30.56 1035 3 5 0.04 1.02
7:49 pm 19:49 Cloudy with Mist and Fog 7 -14 1 -17 78 78 E 9 15 30.56 1035 6 10 0.04 1.02
7:53 pm 19:53 Cloudy 6 -14.4 2 -16.7 83 83 E 10 17 30.43 1030 8 13 0.04 1.02
8:53 pm 20:53 Cloudy with Light Snow 5 -15 1 -17.2 83 83 ESE 10 17 30.45 1031 5 8 N/A
9:21 pm 21:21 Cloudy with Light Snow 5 -15 1 -17.2 83 83 E 10 17 30.59 1036 3 4 N/A
9:33 pm 21:33 Cloudy with Light Snow 5 -15 1 -17.2 83 83 E 9 15 30.59 1036 1 2 0.01 0.25
9:50 pm 21:50 Cloudy with Light Snow 5 -15 1 -17 85 85 E 10 17 30.59 1036 3 4 N/A
9:53 pm 21:53 Cloudy with Light Snow 5 -15 1 -17.2 83 83 E 10 17 30.48 1032 3 4 0.01 0.25
10:10 pm 22:10 Cloudy with Light Snow 4 -15.6 N/A 83 83 E 10 17 30.65 1038 2 3 N/A
10:39 pm 22:39 Cloudy with Light Snow 4 -15.6 N/A 83 83 ESE 9 15 30.65 1038 3 4 0.01 0.25
10:44 pm 22:44 Cloudy with Light Snow 4 -15.6 N/A 83 83 ESE 10 17 30.65 1038 3 5 0.02 0.51
10:53 pm 22:53 Cloudy with Light Snow 4 -15.6 N/A 83 83 ESE 9 15 30.50 1033 5 8 0.02 0.51
11:23 pm 23:23 Cloudy with Light Snow 4 -15.6 N/A 83 83 E 10 17 30.65 1038 2 3 N/A
11:36 pm 23:36 Cloudy with Light Snow 4 -15.6 N/A 83 83 E 10 17 30.65 1038 2 2 N/A
11:53 pm 23:53 Cloudy with Light Snow 4 -15.6 N/A 83 83 E 9 15 30.49 1033 2 3 0.01 0.25

Powered by AerisWeather